Terug naar catalogus

STARLINK-5275

ActiefCommunicatieVLEO
NORAD 55398·PAYLOAD·🇺🇸 United States

Gelanceerd Jan 31, 2023 vanaf Vandenberg Space Force Base

Loading…

Volgende Passages (komende 24 uur)

TLE

VersSource: CelesTrak SupGP

Epoch: Sep 15, 2026, 02:46 UTC

1 55398C 23014H   26258.11576389  .00023445  00000+0  19646-2 0  2586
2 55398  70.0000 306.8091 0003694 266.0457 342.4982 14.98321047    10

Volg STARLINK-5275 in realtime met AllMySat

Download on the App Store